User: anonymous   Login
Location: Fishcreek Rd Observing Site
(41.1865°N, 81.4271°W)
Time: 01:44:52
(UTC-04:00)
Language:

Iridium 75 - Orbit

View from above orbital plane
View from above orbital plane
View from above satellite
View from above satellite

Ground track
Ground track

The orbit data is extracted from the following two-line orbital elements,

1 25346U 98032E   15146.49032906  .00000053  00000-0  11951-4 0  9991
2 25346 086.3980 178.7307 0002315 091.5727 021.2905 14.34216011891786
Epoch (UTC): 26 May 2015 11:46:04
Eccentricity: 0.0002315
inclination: 86.3980°
perigee height: 776 km
apogee height: 779 km
right ascension of ascending node: 178.7307°
argument of perigee: 91.5727°
revolutions per day: 14.34216011
mean anomaly at epoch: 21.2905°
orbit number at epoch: 89178

The dashed part of the orbit path shows where the satellite is in the earth's shadow,  

DLR